[[{"header":{"parameterUnit":"m.s-1","parameterCategory":1,"la1":30.2991,"la2":30.254,"lo1":-89.0895,"lo2":-89.0444,"dy":0.0017,"dx":0.0017,"nx":28,"ny":28,"refTime":"2023-10-13T21:00:00:Z","depth":0,"parameterNumber":2,"parameterNumberName":"U-component_of_WINDS"},"data":[0,0,0,0,0,0,0,0,0,0,0,0,0,0,0,0,0,0,0,0,0,0,0,0,0,0,0,0,0,0,0,0,0,0,0,0,0,0,0,0,0,0,0,0,0,0,0,0,0,0,0,0,0,0,0,0,0,0,-1.6,-1.5999,0,-1.5905,-1.5903,-1.5902,-1.5822,-1.5821,-1.5821,-1.582,-1.5718,-1.5716,-1.5714,0,0,0,0,0,0,0,0,0,0,0,0,0,-1.6108,-1.6106,-1.6,-1.5999,-1.5997,-1.5905,-1.5903,-1.5902,-1.5822,-1.5821,-1.582,-1.5819,-1.5719,-1.5716,-1.5714,0,0,0,0,0,0,0,0,0,0,0,0,0,-1.6041,-1.6106,-1.6,-1.5947,-1.5941,-1.5905,-1.5903,-1.5902,-1.5823,-1.5821,-1.582,-1.5819,-1.5719,-1.5717,-1.5714,-1.5722,0,0,-1.5705,-1.5704,0,0,0,0,0,0,0,0,-1.6045,-1.6038,-1.5956,-1.595,-1.5944,-1.5874,-1.5904,-1.5841,-1.5823,-1.5867,-1.582,-1.5818,-1.5771,-1.5764,-1.5748,-1.5717,-1.5713,-1.5705,-1.5703,-1.5702,-1.5701,0,0,0,0,0,0,0,-1.605,-1.6041,-1.5962,-1.5954,-1.5947,-1.5926,-1.5915,-1.5892,-1.5827,-1.5863,-1.5857,-1.5847,-1.5767,-1.5751,-1.5745,-1.5711,-1.5705,-1.5702,-1.5701,-1.5699,-1.568,-1.5681,0,0,0,0,0,0,-1.6063,-1.6046,-1.5965,-1.5959,-1.5993,-1.5925,-1.5913,-1.5898,-1.5827,-1.5815,-1.5849,-1.5844,-1.5757,-1.5749,-1.5742,-1.5745,-1.5702,-1.5699,-1.5698,-1.5679,-1.568,-1.5682,0,0,0,0,0,0,-1.6066,-1.6057,-1.5969,-1.6001,-1.5988,-1.5924,-1.5908,-1.5896,-1.588,-1.5816,-1.5804,-1.5845,-1.5756,-1.5746,-1.5727,-1.574,-1.5698,-1.5695,-1.5677,-1.5679,-1.5681,-1.5753,0,0,0,0,0,0,-1.607,-1.6059,-1.6062,-1.6001,-1.5986,-1.5958,-1.5909,-1.5895,-1.5876,-1.5869,-1.5809,-1.5798,-1.5754,-1.5732,-1.5724,-1.5735,-1.5693,-1.5676,-1.5678,-1.568,-1.5749,-1.5757,-1.5763,0,0,0,0,0,-1.6074,-1.6086,-1.6063,-1.6053,-1.599,-1.5959,-1.595,-1.59,-1.5878,-1.588,-1.5838,-1.58,-1.5741,-1.5731,-1.5722,-1.5732,-1.5675,-1.5678,-1.568,-1.5746,-1.5755,-1.5763,0,0,0,0,0,0,-1.6148,-1.6077,-1.605,-1.6043,-1.6008,-1.5945,-1.5946,-1.5912,-1.5881,-1.5876,-1.5814,-1.5801,-1.5789,-1.5759,-1.5749,-1.5735,-1.5702,-1.5703,-1.5755,-1.5764,-1.5771,-1.5778,-1.5691,0,0,0,0,0,-1.6164,-1.6146,-1.6084,-1.6084,-1.6067,-1.601,-1.5995,-1.596,-1.592,-1.5904,-1.5861,-1.5823,-1.5795,-1.5778,-1.5749,-1.5745,-1.5729,-1.5747,-1.5755,-1.5761,-1.5762,-1.5755,-1.5762,-1.569,-1.569,-1.569,0,0,-1.6196,-1.6155,-1.6147,-1.6098,-1.6066,-1.6047,-1.5998,-1.5981,-1.5965,-1.5901,-1.5881,-1.5848,-1.5801,-1.5789,-1.5782,-1.5764,-1.5778,-1.5764,-1.577,-1.5767,-1.5758,-1.5765,-1.5771,-1.5692,-1.5692,-1.5692,0,0,-1.6244,-1.6212,-1.6207,-1.6177,-1.613,-1.6092,-1.6091,-1.6034,-1.601,-1.5989,-1.594,-1.592,-1.5875,-1.5843,-1.582,-1.5857,-1.5819,-1.5849,-1.5886,-1.588,-1.5886,-1.5891,-1.5901,-1.5906,-1.585,-1.5851,-1.5851,0,-1.6289,-1.626,-1.6209,-1.6194,-1.6173,-1.6115,-1.6109,-1.6081,-1.6027,-1.6013,-1.5994,-1.5935,-1.5899,-1.5878,-1.5887,-1.5872,-1.5867,-1.5854,-1.589,-1.5894,-1.5897,-1.5907,-1.5911,-1.5854,-1.5854,-1.5854,-1.5853,0,-1.6317,-1.6297,-1.6299,-1.6249,-1.6228,-1.6218,-1.6164,-1.6149,-1.6116,-1.6079,-1.6058,-1.6013,-1.5974,-1.5966,-1.5934,-1.594,-1.593,-1.5902,-1.5867,-1.5909,-1.5916,-1.592,-1.586,-1.5858,-1.5857,-1.5856,0,0,-1.6407,-1.633,-1.6331,-1.6307,-1.6252,-1.6235,-1.6221,-1.6184,-1.6171,-1.6136,-1.6121,-1.6084,-1.6057,-1.6032,-1.5995,-1.599,-1.6019,-1.5961,-1.5959,-1.5971,-1.6021,-1.6042,-1.6047,-1.5995,-1.5995,-1.5996,-1.6024,0,-1.6445,-1.6418,-1.6372,-1.636,-1.634,-1.6285,-1.6273,-1.6236,-1.6202,-1.6179,-1.614,-1.6114,-1.6082,-1.6066,-1.6059,-1.6017,-1.6027,-1.6014,-1.5978,-1.5977,-1.599,-1.6051,-1.6073,-1.6102,-1.6027,-1.6028,-1.6028,0,-1.6485,-1.6453,-1.644,-1.6384,-1.6374,-1.6364,-1.6326,-1.6305,-1.6262,-1.6237,-1.621,-1.6169,-1.615,-1.612,-1.6092,-1.6084,-1.6066,-1.6044,-1.6043,-1.6036,-1.6004,-1.6043,-1.611,-1.6114,-1.6033,-1.6032,-1.6032,0,-1.655,-1.6504,-1.649,-1.6471,-1.6407,-1.6401,-1.6373,-1.6329,-1.631,-1.6275,-1.6261,-1.6226,-1.6205,-1.6177,-1.6128,-1.6111,-1.6104,-1.607,-1.6081,-1.6082,-1.608,-1.608,-1.6143,-1.6073,-1.6073,-1.6072,-1.6072,0,-1.6595,-1.6588,-1.6518,-1.6509,-1.6499,-1.6445,-1.6436,-1.6404,-1.6365,-1.6347,-1.6298,-1.6281,-1.6218,-1.6194,-1.6155,-1.6136,-1.6128,-1.6105,-1.6095,-1.6109,-1.6111,-1.6095,-1.609,-1.6074,-1.6073,-1.6073,-1.6073,0,-1.6665,-1.6618,-1.6598,-1.654,-1.6524,-1.652,-1.6468,-1.6456,-1.6419,-1.6397,-1.6389,-1.633,-1.63,-1.6248,-1.6202,-1.6176,-1.6163,-1.6147,-1.6178,-1.6171,-1.6183,-1.6182,-1.6235,-1.6239,-1.617,-1.617,-1.6171,0,-1.6696,-1.669,-1.663,-1.6615,-1.659,-1.6567,-1.6547,-1.6494,-1.6474,-1.6424,-1.6418,-1.6384,-1.6353,-1.6306,-1.6258,-1.6222,-1.6203,-1.6224,-1.6197,-1.6211,-1.62,-1.62,-1.6198,-1.623,-1.6231,-1.6232,-1.6232,0,-1.6755,-1.6732,-1.6706,-1.6671,-1.6649,-1.6618,-1.6585,-1.6576,-1.6515,-1.6495,-1.6464,-1.644,-1.6393,-1.6359,-1.6316,-1.6286,-1.6248,-1.6242,-1.6242,-1.6254,-1.6272,-1.626,-1.6193,-1.624,-1.6239,-1.6239,-1.6238,-1.6238,-1.6805,-1.6796,-1.6753,-1.6724,-1.6694,-1.6665,-1.665,-1.6612,-1.6585,-1.6544,-1.6514,-1.6484,-1.644,-1.6379,-1.6351,-1.6325,-1.6308,-1.6309,-1.6309,-1.6309,-1.6313,-1.6279,-1.6317,-1.6317,-1.6317,-1.6317,-1.6316,0,-1.686,-1.6829,-1.6804,-1.676,-1.6737,-1.6706,-1.6668,-1.665,-1.6625,-1.6588,-1.6559,-1.6522,-1.6488,-1.6438,-1.64,-1.6389,-1.6371,-1.6381,-1.638,-1.6373,-1.6332,-1.6335,-1.6396,-1.6396,-1.6396,-1.6396,-1.6396,-1.6396,-1.6885,-1.6868,-1.684,-1.6807,-1.6776,-1.6747,-1.6728,-1.6699,-1.6669,-1.663,-1.6603,-1.6571,-1.6528,-1.6486,-1.6453,-1.6439,-1.6427,-1.6442,-1.6422,-1.6384,-1.6376,-1.6369,-1.6371,-1.644,-1.644,-1.6465,-1.6465,-1.6465]},{"header":{"parameterUnit":"m.s-1","parameterCategory":1,"la1":30.2991,"la2":30.254,"lo1":-89.0895,"lo2":-89.0444,"dy":0.0017,"dx":0.0017,"nx":28,"ny":28,"refTime":"2023-10-13T21:00:00:Z","depth":0,"parameterNumber":3,"parameterNumberName":"V-component_of_WINDS"},"data":[0,0,0,0,0,0,0,0,0,0,0,0,0,0,0,0,0,0,0,0,0,0,0,0,0,0,0,0,0,0,0,0,0,0,0,0,0,0,0,0,0,0,0,0,0,0,0,0,0,0,0,0,0,0,0,0,0,0,-1.6979,-1.698,0,-1.7062,-1.7063,-1.7064,-1.7072,-1.7071,-1.707,-1.7069,-1.715,-1.7153,-1.7156,0,0,0,0,0,0,0,0,0,0,0,0,0,-1.6825,-1.6828,-1.6979,-1.698,-1.6981,-1.7062,-1.7063,-1.7064,-1.7072,-1.7071,-1.707,-1.7069,-1.7149,-1.7153,-1.7156,0,0,0,0,0,0,0,0,0,0,0,0,0,-1.6898,-1.6829,-1.6979,-1.6995,-1.6997,-1.7061,-1.7063,-1.7064,-1.7072,-1.7071,-1.707,-1.7068,-1.7148,-1.7153,-1.7157,-1.721,0,0,-1.717,-1.7172,0,0,0,0,0,0,0,0,-1.6894,-1.6904,-1.6992,-1.6994,-1.6997,-1.7055,-1.7038,-1.7113,-1.7072,-1.7044,-1.7069,-1.7068,-1.712,-1.7126,-1.7144,-1.7213,-1.7217,-1.7171,-1.7173,-1.7175,-1.7177,0,0,0,0,0,0,0,-1.6889,-1.69,-1.7012,-1.6993,-1.6996,-1.6997,-1.7006,-1.7052,-1.7088,-1.7046,-1.7047,-1.7057,-1.7121,-1.714,-1.7146,-1.7218,-1.7171,-1.7175,-1.7177,-1.7179,-1.7333,-1.7334,0,0,0,0,0,0,-1.6882,-1.6896,-1.7009,-1.7014,-1.6941,-1.7001,-1.7011,-1.7038,-1.7087,-1.7094,-1.7058,-1.7057,-1.7133,-1.7141,-1.7149,-1.7213,-1.7175,-1.718,-1.7182,-1.7331,-1.7333,-1.7335,0,0,0,0,0,0,-1.6878,-1.6892,-1.7006,-1.6956,-1.697,-1.7005,-1.7035,-1.704,-1.706,-1.7096,-1.7102,-1.7071,-1.7132,-1.7143,-1.7194,-1.7216,-1.7181,-1.7186,-1.733,-1.7332,-1.7334,-1.7343,0,0,0,0,0,0,-1.6874,-1.689,-1.6912,-1.6956,-1.6973,-1.7051,-1.7036,-1.7043,-1.7067,-1.7067,-1.711,-1.7116,-1.7132,-1.7188,-1.7199,-1.7222,-1.7189,-1.7328,-1.7331,-1.7333,-1.7341,-1.7345,-1.7348,0,0,0,0,0,-1.6868,-1.691,-1.6913,-1.6926,-1.7,-1.7052,-1.7062,-1.708,-1.7069,-1.709,-1.7113,-1.7115,-1.7212,-1.7193,-1.7205,-1.723,-1.7327,-1.733,-1.7333,-1.7339,-1.7344,-1.7348,0,0,0,0,0,0,-1.6867,-1.6916,-1.692,-1.6978,-1.7011,-1.7053,-1.7081,-1.7085,-1.7121,-1.7119,-1.714,-1.7149,-1.72,-1.722,-1.7198,-1.7283,-1.7268,-1.7274,-1.7268,-1.7273,-1.7277,-1.7271,-1.7193,0,0,0,0,0,-1.6873,-1.6912,-1.6953,-1.7,-1.7017,-1.7046,-1.7069,-1.7081,-1.7115,-1.7129,-1.7156,-1.7189,-1.7227,-1.7251,-1.7288,-1.7343,-1.7352,-1.7366,-1.737,-1.7373,-1.7378,-1.7408,-1.7414,-1.7345,-1.7345,-1.7345,0,0,-1.6887,-1.6919,-1.6942,-1.7001,-1.7028,-1.7066,-1.7058,-1.7099,-1.7128,-1.7135,-1.7185,-1.7206,-1.7244,-1.7297,-1.7322,-1.7316,-1.7399,-1.7378,-1.738,-1.7383,-1.7412,-1.7418,-1.7424,-1.7348,-1.7347,-1.7347,0,0,-1.6931,-1.696,-1.7002,-1.7029,-1.7071,-1.709,-1.71,-1.7142,-1.7156,-1.7207,-1.7213,-1.7247,-1.7312,-1.7339,-1.736,-1.7414,-1.7416,-1.7425,-1.7446,-1.7475,-1.748,-1.7485,-1.7504,-1.751,-1.743,-1.743,-1.743,0,-1.6943,-1.7003,-1.7023,-1.7064,-1.7089,-1.7098,-1.714,-1.7165,-1.7216,-1.7233,-1.7225,-1.7306,-1.7332,-1.7392,-1.7405,-1.7423,-1.7434,-1.7421,-1.7478,-1.7483,-1.7488,-1.7506,-1.7513,-1.7431,-1.7431,-1.7431,-1.7431,0,-1.7014,-1.7055,-1.7084,-1.7134,-1.7162,-1.7204,-1.7229,-1.7255,-1.7263,-1.7283,-1.7334,-1.7365,-1.7409,-1.7423,-1.7432,-1.7484,-1.7478,-1.7474,-1.746,-1.7495,-1.7512,-1.7519,-1.7432,-1.7432,-1.7432,-1.7431,0,0,-1.706,-1.7121,-1.7131,-1.7153,-1.7199,-1.7231,-1.7272,-1.7315,-1.7337,-1.7371,-1.7405,-1.746,-1.7456,-1.7481,-1.7492,-1.7518,-1.7557,-1.751,-1.7511,-1.7518,-1.7615,-1.7618,-1.7626,-1.7559,-1.7561,-1.7562,-1.7612,0,-1.711,-1.7185,-1.7204,-1.7267,-1.7305,-1.7314,-1.7349,-1.7381,-1.74,-1.7433,-1.7454,-1.7492,-1.7484,-1.7499,-1.7525,-1.7547,-1.7577,-1.7544,-1.759,-1.7592,-1.758,-1.7635,-1.7638,-1.7684,-1.7619,-1.762,-1.7621,0,-1.7177,-1.7214,-1.7282,-1.7322,-1.7339,-1.7371,-1.7411,-1.7444,-1.7479,-1.7491,-1.7519,-1.7528,-1.7569,-1.7553,-1.761,-1.7587,-1.7607,-1.762,-1.7623,-1.7627,-1.7608,-1.7641,-1.7699,-1.7706,-1.7632,-1.7631,-1.763,0,-1.7204,-1.727,-1.7319,-1.7338,-1.7386,-1.7408,-1.7429,-1.7464,-1.7488,-1.7523,-1.7539,-1.7578,-1.7599,-1.7628,-1.7647,-1.7633,-1.7702,-1.7688,-1.7713,-1.7712,-1.7727,-1.7725,-1.7789,-1.774,-1.774,-1.774,-1.774,0,-1.7257,-1.7297,-1.7331,-1.7361,-1.7407,-1.7427,-1.7471,-1.7492,-1.7522,-1.7556,-1.7565,-1.7596,-1.7619,-1.7652,-1.7667,-1.7712,-1.7721,-1.7731,-1.7734,-1.773,-1.7729,-1.7743,-1.7741,-1.7742,-1.7741,-1.7741,-1.7741,0,-1.7293,-1.7318,-1.7372,-1.7413,-1.7425,-1.7456,-1.7491,-1.752,-1.7539,-1.7581,-1.7592,-1.7621,-1.7661,-1.7683,-1.7733,-1.7742,-1.7792,-1.7794,-1.7781,-1.7782,-1.7806,-1.7803,-1.7881,-1.7891,-1.7836,-1.7836,-1.7837,0,-1.7325,-1.7357,-1.7402,-1.7426,-1.7448,-1.7485,-1.7511,-1.7532,-1.7557,-1.7599,-1.7623,-1.7663,-1.7697,-1.776,-1.7785,-1.7823,-1.7825,-1.785,-1.7831,-1.7825,-1.7825,-1.7823,-1.7826,-1.7853,-1.7853,-1.7854,-1.7854,0,-1.738,-1.739,-1.7427,-1.7467,-1.7497,-1.753,-1.7563,-1.7581,-1.7607,-1.7635,-1.7676,-1.7703,-1.7754,-1.7793,-1.7833,-1.7853,-1.7858,-1.786,-1.7868,-1.7863,-1.7854,-1.7859,-1.7789,-1.7858,-1.7858,-1.7857,-1.7857,-1.7857,-1.7415,-1.7443,-1.7479,-1.752,-1.7546,-1.7576,-1.7605,-1.7628,-1.7663,-1.7707,-1.7717,-1.7761,-1.7794,-1.7848,-1.7869,-1.7902,-1.7898,-1.7909,-1.7912,-1.7914,-1.7915,-1.7849,-1.791,-1.791,-1.791,-1.791,-1.7909,0,-1.7469,-1.7493,-1.7529,-1.7575,-1.7606,-1.7609,-1.7644,-1.767,-1.7709,-1.774,-1.7773,-1.782,-1.7859,-1.7887,-1.7926,-1.7947,-1.795,-1.7956,-1.7955,-1.7959,-1.7917,-1.7907,-1.7953,-1.7953,-1.7953,-1.7953,-1.7953,-1.7953,-1.7501,-1.7549,-1.7563,-1.7624,-1.7647,-1.7691,-1.7711,-1.7738,-1.7763,-1.7816,-1.7848,-1.7867,-1.7896,-1.7937,-1.7972,-1.798,-1.7993,-1.7999,-1.8007,-1.7967,-1.7962,-1.7958,-1.7948,-1.8002,-1.8002,-1.8046,-1.8046,-1.8047]}]]